Content
SEND FEEDBACK

Daily
Averages
Monthly
Summary
United States of America

CHESTERFIELD, MISSOURI


Home > North America > United States > Missouri
Elevation: 559 feet     Latitude: 38 41N     Longitude: 090 31W

WEATHER
 
SELECT A DAY
Number of Records: 208,273;   Date Range: 1/1/95 - 12/18/14
 
SHARE

PRINT THIS DATA

[ ← Previous Day ]
WEATHER ALMANAC - MARCH 7, 2013
[ Next Day → ]
[ °C ]   °F
Weather ElementAverageHighLow
Temperature35 °F46 °F (3:51 pm)23 °F (5:51 am)
Dewpoint24.1 °F28 °F (6:51 pm)19 °F (5:51 am)
Humidity66.2 %85 % (5:51 am)44 % (3:51 pm)
Barometer30.39 in30.45 in (8:51 am)30.34 in (4:51 pm)
Wind Speed6.3 mph11.5 mph (5:51 pm)
Weather ElementAverage
Visibility9.2 mi
Wind DirectionENE (77.8 °)

Weather ElementTotal
Precipitation---
Heating Degree Days30.5 (Base 65)
Averaged from 23 records on March 7, 2013
WEATHER CONDITIONS BREAKOUT
WIND DIRECTION BREAKOUT
WEATHER BY HOUR - MARCH 7, 2013
[ °C ]   °F
Local TimeTemperatureDewpointHumidityBarometerVisibilityWind DirectionWind SpeedGust SpeedPrecipitationEventsConditions
1:51 AM27.0 °F21.0 °F78 %30.40 in10.0 miNorth (10°)3.5 mphScattered Clouds
2:51 AM27.0 °F19.9 °F75 %30.39 in10.0 miNNE (30°)3.5 mphMostly Cloudy
3:51 AM26.1 °F19.9 °F78 %30.40 in10.0 miNE (50°)4.6 mphMostly Cloudy
4:51 AM25.0 °F19.9 °F81 %30.42 in9.0 miCalmPartly Cloudy
5:51 AM23.0 °F19.0 °F85 %30.42 in8.0 miEast (80°)3.5 mphPartly Cloudy
6:51 AM24.1 °F19.0 °F81 %30.43 in6.0 miCalmHaze
7:51 AM28.4 °F23.0 °F80 %30.41 in6.0 miESE (120°)3.5 mphHaze
8:51 AM30.9 °F24.1 °F76 %30.45 in6.0 miSE (130°)5.8 mphHaze
9:51 AM34.0 °F23.0 °F64 %30.45 in8.0 miESE (110°)3.5 mphScattered Clouds
10:51 AM37.0 °F23.0 °F57 %30.44 in9.0 miESE (110°)5.8 mphPartly Cloudy
11:51 AM39.9 °F24.1 °F53 %30.42 in10.0 miEast (100°)6.9 mphScattered Clouds
12:51 PM43.0 °F24.1 °F47 %30.40 in10.0 miVariable4.6 mphPartly Cloudy
1:51 PM43.0 °F24.1 °F47 %30.37 in10.0 miESE (120°)4.6 mphScattered Clouds
2:51 PM45.0 °F25.0 °F46 %30.35 in10.0 miVariable5.8 mphScattered Clouds
3:51 PM46.0 °F25.0 °F44 %30.35 in10.0 miEast (100°)8.1 mphScattered Clouds
4:51 PM45.0 °F26.1 °F48 %30.34 in10.0 miESE (110°)10.4 mphMostly Cloudy
5:51 PM42.1 °F27.0 °F55 %30.35 in10.0 miEast (100°)11.5 mphScattered Clouds
6:51 PM39.9 °F28.0 °F63 %30.36 in10.0 miEast (100°)11.5 mphScattered Clouds
7:51 PM37.9 °F28.0 °F68 %30.36 in10.0 miEast (100°)10.4 mphPartly Cloudy
8:51 PM37.0 °F28.0 °F70 %30.37 in10.0 miEast (100°)9.2 mphClear
9:51 PM36.0 °F28.0 °F73 %30.37 in10.0 miEast (100°)10.4 mphClear
10:51 PM35.1 °F28.0 °F76 %30.38 in10.0 miESE (110°)10.4 mphClear
11:51 PM33.1 °F27.0 °F78 %30.39 in9.0 miESE (110°)8.1 mphPartly Cloudy
Hourly data recorded from KSTL, located miles away from Chesterfield, Missouri







STORIES FROM OUR PARTNERS